Theta_e
300 301 301 302 303 304 326 336 337 337 334 332 331 330 330 332 332 332 332 332 330 329 328 326 327 326 327 327 325 326 323 324
306 302 302 303 301 302 319 333 335 335 332 331 330 329 329 330 330 331 330 331 330 329 328 326 326 326 325 326 326 323 321 324
306 307 308 301 303 305 317 331 334 334 333 332 330 332 330 330 330 330 331 328 328 328 327 326 327 327 326 324 324 321 322 324
303 305 306 307 305 306 323 329 333 334 333 327 323 324 325 325 326 328 327 326 326 327 325 328 327 326 324 324 323 322 320 323
302 303 304 305 306 309 323 330 332 333 331 327 324 325 324 326 328 328 324 324 324 325 324 326 327 326 323 323 324 323 321 319
299 303 303 304 306 308 322 330 331 332 329 328 325 323 323 321 322 324 321 322 324 326 327 326 325 325 324 324 324 323 322 320
300 301 302 302 305 309 322 328 329 330 328 326 325 321 319 320 320 321 319 321 323 325 325 325 326 324 324 323 323 323 323 322
297 297 297 299 301 305 317 329 328 327 327 324 323 320 320 319 320 319 319 320 321 322 325 325 324 325 324 324 323 323 323 321
295 295 296 297 300 303 310 329 326 326 325 323 322 321 320 320 320 319 320 321 322 322 322 324 325 324 324 324 324 323 323 322
293 293 294 296 297 300 304 323 324 325 324 322 321 321 320 319 319 321 321 321 321 321 323 323 322 323 323 323 323 322 322 322
291 291 292 295 296 299 302 310 323 323 323 322 321 320 320 319 319 318 318 317 318 319 318 319 319 320 320 321 321 322 322 322
289 290 291 293 296 296 299 304 319 322 322 321 320 319 319 319 318 317 317 317 318 318 318 317 317 318 319 319 319 320 320 320
288 289 289 291 292 295 296 298 305 314 322 320 319 320 320 319 318 317 318 317 316 316 318 318 318 318 318 318 317 318 318 318
287 287 287 288 290 292 294 295 299 304 317 320 319 320 320 321 321 320 320 318 318 319 318 317 318 318 317 317 318 317 318 318
286 285 286 287 288 289 291 292 296 300 303 311 315 318 318 317 316 316 315 313 310 308 307 306 307 309 313 316 317 317 317 318
285 284 284 285 286 287 289 291 293 297 298 298 299 305 308 306 304 303 302 301 300 300 299 298 297 297 297 300 314 315 308 304
284 284 284 285 285 286 288 289 291 294 293 293 294 295 296 295 295 295 294 294 294 294 293 292 291 292 290 293 302 302 300 298
283 284 284 285 285 286 286 288 290 290 291 290 290 290 290 290 290 290 290 290 291 290 289 289 288 288 289 290 291 292 292 292
283 283 284 284 285 285 286 286 287 287 287 288 289 288 286 287 287 286 287 287 287 288 287 287 286 287 287 288 288 288 287 287
Wind_Speed
13 16 12 10 12 12 16 16 19 17 9 6 6 7 5 6 8 9 12 9 10 8 7 8 9 7 6 7 7 6 4 7
14 14 15 12 9 9 15 16 16 13 10 11 8 11 9 7 8 11 12 10 11 9 7 7 10 9 9 9 6 8 4 6
18 19 20 12 14 11 14 18 17 16 13 11 6 10 6 7 7 9 11 10 11 10 10 9 10 7 10 9 8 5 3 8
19 19 18 16 13 7 13 19 19 19 16 9 5 6 4 3 5 7 7 9 10 10 10 10 9 8 7 9 9 11 8 6
17 17 19 18 17 15 13 17 18 16 16 15 18 15 10 8 8 7 6 8 9 9 9 10 10 7 8 8 8 8 7 9
17 18 17 18 17 17 12 15 15 15 18 18 15 11 7 6 4 8 7 7 9 9 9 9 9 7 8 8 9 9 7 7
14 17 18 18 18 16 8 11 13 14 15 15 18 16 13 11 9 10 7 6 7 8 9 8 8 8 8 9 8 10 10 8
14 18 20 20 21 20 13 11 14 13 13 13 13 16 16 16 13 10 10 8 7 9 9 9 8 8 8 8 9 9 10 9
16 18 18 18 19 19 16 8 11 12 11 12 10 14 9 9 11 9 8 9 8 8 10 10 9 8 8 8 7 8 10 10
17 18 17 18 18 18 16 8 10 13 12 10 10 8 11 10 9 8 8 10 7 10 9 8 6 7 7 8 7 9 10 11
16 16 19 18 16 16 17 14 4 8 13 9 7 8 9 9 8 7 8 6 7 8 7 5 4 4 5 7 7 9 13 11
16 17 16 16 17 17 17 17 7 7 7 5 7 7 8 8 8 7 7 7 8 8 7 6 6 6 8 8 8 9 11 11
14 15 16 15 16 16 16 16 13 11 7 3 6 9 10 10 7 7 8 7 6 6 6 5 5 4 4 6 6 4 8 9
14 15 17 16 15 15 15 16 16 14 6 5 5 7 10 9 9 8 8 8 6 6 6 4 4 4 4 5 6 5 6 9
14 14 15 16 16 16 15 16 15 15 13 8 2 8 10 11 9 9 8 9 9 8 7 6 5 4 1 4 4 6 6 6
14 14 15 15 16 16 16 15 16 14 14 13 12 11 7 10 11 10 9 9 9 9 8 8 7 6 5 6 2 4 7 9
13 14 14 15 15 15 15 14 13 13 14 14 11 11 11 11 12 11 11 10 10 10 10 9 9 7 11 9 6 7 8 9
11 12 12 12 13 13 14 14 13 13 14 15 16 15 13 14 14 13 12 11 10 11 11 11 11 10 15 15 12 9 10 9
11 10 11 13 12 13 13 14 15 15 14 13 14 12 12 14 14 14 13 12 11 9 10 12 11 11 16 17 15 12 11 12
Wind_Direction
275 276 259 228 222 203 202 193 194 193 184 177 156 154 166 177 176 176 175 179 177 174 179 172 177 174 176 175 179 188 160 166
324 288 272 258 228 189 200 191 193 175 176 174 181 178 179 173 182 171 171 175 177 179 180 170 188 186 187 181 168 175 145 153
336 340 324 270 254 199 196 197 184 185 182 186 177 172 180 179 173 168 169 171 174 177 182 177 189 181 183 179 182 173 152 171
335 337 331 330 322 229 196 195 191 187 178 147 103 94 88 125 179 164 171 167 170 177 179 175 176 180 182 182 187 186 180 179
330 332 331 330 314 302 219 194 191 184 172 167 167 175 176 192 182 164 161 163 168 175 178 175 178 176 182 184 189 192 180 185
328 326 332 326 320 311 240 199 184 180 175 178 173 173 158 116 159 164 167 161 168 182 183 172 177 185 185 182 185 186 194 185
332 328 339 336 330 322 279 185 184 179 180 175 177 162 151 145 165 185 175 164 173 185 188 180 184 184 183 185 189 194 199 196
334 346 343 336 335 330 314 180 179 172 178 173 167 158 161 158 171 181 172 169 186 188 181 186 193 187 184 185 188 197 198 191
339 353 337 335 334 332 333 201 173 171 160 180 180 156 158 163 170 167 173 180 184 179 194 195 182 181 187 191 199 200 200 194
348 342 336 338 337 332 330 290 176 175 162 162 176 172 155 161 158 161 169 175 166 181 181 172 160 172 186 198 209 206 202 198
350 347 343 339 336 340 341 341 164 190 159 138 179 159 145 147 145 155 165 149 146 154 152 133 155 173 191 205 219 226 214 200
350 345 344 342 345 347 348 351 30 113 83 137 159 146 153 143 153 153 153 148 150 154 148 146 211 210 222 223 231 237 213 182
348 344 345 350 350 354 353 353 3 13 86 141 180 157 150 156 150 151 150 147 139 134 129 150 183 190 202 213 217 232 178 171
358 353 353 352 351 358 357 358 8 352 314 149 173 175 168 149 152 145 140 127 128 127 126 155 174 197 201 222 213 194 196 169
359 356 354 350 353 355 359 9 7 6 5 44 339 169 139 114 100 105 106 104 96 79 73 67 44 23 320 208 196 185 178 182
8 1 355 353 354 356 4 12 9 11 13 31 21 22 73 91 93 87 79 78 84 85 87 71 45 35 1 324 196 129 108 94
11 6 1 358 358 357 359 6 10 27 27 26 23 31 28 66 67 69 75 72 70 75 66 70 55 40 4 22 91 90 85 96
6 5 8 0 358 360 5 8 11 24 37 33 32 36 39 46 57 57 60 63 64 72 69 65 59 46 40 51 65 75 80 74
9 9 10 6 1 7 15 17 22 26 26 29 41 47 37 50 55 59 53 55 55 56 68 75 69 50 50 59 65 76 71 61